sat.trackr.live / text

‹ back to catalog

STARLINK-6219

NORAD 56892 · 2023-083S

PAYLOAD ACTIVE UNKNOWN

§ Identity

Operator
Country
US
Launch date
2023-06-12
Launch site
AFETR
Launch vehicle
Mass (kg)
RCS (m²)

Purposes: comms

External: N2YO · Heavens-Above · Gunter

§ Orbital elements

Epoch: 2026-09-19T20:59:14.754048Z

Period
94.27 min
Inclination
43.0044°
Eccentricity
0.0002182
Mean motion
15.27572361 rev/d
Perigee alt
481.6 km
Apogee alt
484.6 km
Semi-major
6,861.2 km
B*
-2.7907e-6
RAAN
72.3592°
Arg perigee
258.9986°
Mean anomaly
101.0621°
Rev number
18,128

§ Raw data

STARLINK-62191 56892U 23083S   26262.87447632 -.00000339  00000+0 -27907-5 0  99912 56892  43.0044  72.3592 0002182 258.9986 101.0621 15.27572361181285

JSON: /api/v1/satellites/56892 · /tle

For live sub-satellite position, see the globe view (requires WebGL).

§ Visibility from observer

Set your observer location to see the next 7 days of passes ≥ 10°. The values pass through the URL so the page stays shareable.

No JS? Fill the form by hand. The geolocation button needs JavaScript.